Regional Weather Roundup
Issued by NWS

Home | Current Version | Previous Version | Text Only | Print | Product List | Glossary Off
Versions: 1 2 3 4 5 6 7 8 9 10 11 12 13 14 15 16 17 18 19 20 21 22 23 24 25 26 27 28 29 30 31 32 33 34 35 36 37 38 39 40 41 42 43 44 45 46 47 48 49 50

000
ASUS43 KOAX 282202
RWRNE

WEATHER ROUNDUP FOR NEBRASKA
NATIONAL WEATHER SERVICE OMAHA NE
500 PM CDT SAT MAY 28 2016

NOTES: SATELLITE DATA IS BEING USED TO AUGMENT CLOUD COVER ABOVE
       12000 FEET.
       "FAIR" INDICATES FEW OR NO CLOUDS BELOW 12,000 FEET WITH NO
       SIGNIFICANT WEATHER AND/OR OBSTRUCTIONS TO VISIBILITY.

  * THESE STATIONS DO NOT REPORT WEATHER SUCH AS RAIN...SNOW OR FOG.

NEZ001>004-019>022-054>056-282300-
NEBRASKA PANHANDLE

CITY           SKY/WX    TMP DP  RH WIND       PRES   REMARKS
SCOTTSBLUFF    MOSUNNY   74  40  29 SW9       29.92S
ALLIANCE       CLOUDY    68  48  48 NE17      29.92F
CHADRON        CLOUDY    69  47  45 S7        29.92R
SIDNEY         CLOUDY    69  47  45 SW15      29.98S
$$

NEZ057>060-069>072-079>082-282300-
SOUTHWEST NEBRASKA

CITY           SKY/WX    TMP DP  RH WIND       PRES   REMARKS
NORTH PLATTE   SUNNY     75  51  43 NW7       29.92S
IMPERIAL       MOSUNNY   74  47  38 W8        29.95S
LEXINGTON      MOSUNNY   73  53  48 W7        29.91S
MCCOOK         MOSUNNY   76  51  41 NW7       29.93S
$$

NEZ005>010-023>029-035>040-094-282300-
NORTH CENTRAL NEBRASKA

CITY           SKY/WX    TMP DP  RH WIND       PRES   REMARKS
VALENTINE      PTSUNNY   75  47  36 N9        29.90R
AINSWORTH      CLOUDY    72  49  44 N12       29.90S
BROKEN BOW     MOSUNNY   73  52  47 NW7       29.90S
ORD            MOSUNNY   75  53  46 NW13      29.87S
$$

NEZ041-046>049-061>064-073>077-083>087-282300-
SOUTH CENTRAL NEBRASKA

CITY           SKY/WX    TMP DP  RH WIND       PRES   REMARKS
GRAND ISLAND   SUNNY     74  53  48 NW10G21   29.89R
AURORA         PTSUNNY   73  55  52 NW14      29.89R
HASTINGS       MOSUNNY   75  52  44 W12       29.90R
KEARNEY *      SUNNY     75  52  43 W14       29.91S
YORK           MOSUNNY   72  57  60 NW10      29.88S
$$

NEZ011>018-030>034-042>045-282300-
NORTHEAST NEBRASKA

CITY           SKY/WX    TMP DP  RH WIND       PRES   REMARKS
NORFOLK        PTSUNNY   67  56  67 W17G23    29.84R
ALBION         MOSUNNY   70  55  59 NW9G16    29.87S
BLAIR          PTSUNNY   71  56  60 W16G25    29.82R
FREMONT        MOSUNNY   71  55  56 W20G26    29.84R
TEKAMAH        CLOUDY    70  56  61 W20       29.79R
$$

NEZ050>053-065>068-078-088>093-282300-
SOUTHEAST NEBRASKA

CITY           SKY/WX    TMP DP  RH WIND       PRES   REMARKS
LINCOLN        SUNNY     76  56  49 W14       29.86R
OMAHA EPPLEY   MOSUNNY   72  56  57 W17       29.81R
BEATRICE       MOSUNNY   74  57  56 W15       29.88R
FALLS CITY     MOSUNNY   77  59  53 SW12      29.86S
NEBRASKA CITY  MOSUNNY   74  56  53 W16G22    29.86R
$$

NEZ044-045-051>053-067-282300-
OMAHA AREA

CITY           SKY/WX    TMP DP  RH WIND       PRES   REMARKS
OMAHA EPPLEY   MOSUNNY   72  56  57 W17       29.81R
BLAIR          PTSUNNY   71  56  60 W16G25    29.82R
FREMONT        MOSUNNY   71  55  56 W20G26    29.84R
OFFUTT AFB     MOSUNNY   74  55  51 W20G25    29.82R
WAHOO          FAIR      72  54  53 W23G30    29.84R
$$




USA.gov is the U.S. government's official web portal to all federal, state and local government web resources and services.